Golden Valley, AZ

12:53 AM MST on February 10, 2016 (GMT -0700)
Kingman

Weather History for KIGM - January, 2014

Change the Weather History Date:

Thursday, January 30, 2014

  Actual Average Record
Temperature  
Mean Temperature 57 °F 45 °F  
Max Temperature 67 °F 58 °F 74 °F (1920)
Min Temperature 47 °F 32 °F 6 °F (1979)
Degree Days  
Heating Degree Days 8 20  
Month to date heating degree days 537 635  
Since 1 July heating degree days 1913 1884  
Cooling Degree Days 0 0  
Month to date cooling degree days 0 0  
Year to date cooling degree days 0 0  
Growing Degree Days 6 (Base 50)    
Moisture  
Dew Point 26 °F    
Average Humidity 35    
Maximum Humidity 47    
Minimum Humidity 22    
Precipitation  
Precipitation 0.00 in 0.05 in 0.87 in (1980)
Month to date precipitation 0.00 0.98  
Year to date precipitation 0.00 0.98  
Sea Level Pressure  
Sea Level Pressure 29.65 in    
Wind  
Wind Speed 15 mph (SSW)    
Max Wind Speed 31 mph    
Max Gust Speed 41 mph    
Visibility 10 miles    
Events      
T = Trace of Precipitation, MM = Missing Value Source: NWS Daily Summary

Daily Weather History Graph

Daily Weather History Graph

Search for Another Location

Airport or City:

Trip Planner

Search our weather history database for the weather conditions in past years. The results will help you decide how hot, cold, wet, or windy it might be!

Date:

Astronomy

Jan. 30, 2014 Rise Set
Actual Time 7:36 AM MST 6:02 PM MST
Civil Twilight 7:09 AM MST 6:28 PM MST
Nautical Twilight 6:39 AM MST 6:59 PM MST
Astronomical Twilight 6:09 AM MST 7:29 PM MST
Moon 7:07 AM MST (1/30) 6:16 PM MST (1/30)
Length of Visible Light 11h 19m
Length of Day
10h 25m
Waning Crescent, 0% of the Moon is Illuminated
Jan 30
Waning Crescent
Jan 30
New
Feb 6
First Quarter
Feb 14
Full
Feb 22
Last Quarter

Hourly Weather History & Observations

Time (MST) Temp. Dew Point Humidity Pressure Visibility Wind Dir Wind Speed Gust Speed Precip Events Conditions
3:51 AM 50.0 °F 21.0 °F 32% 29.73 in 10.0 mi Variable 3.5 mph - N/A   Clear
4:51 AM 52.0 °F 21.9 °F 31% 29.71 in 10.0 mi Variable 5.8 mph - N/A   Clear
5:51 AM 54.0 °F 19.9 °F 26% 29.70 in 10.0 mi ESE 8.1 mph - N/A   Clear
6:51 AM 51.1 °F 21.9 °F 32% 29.72 in 10.0 mi East 4.6 mph - N/A   Clear
7:51 AM 57.0 °F 21.9 °F 26% 29.72 in 10.0 mi Variable 5.8 mph - N/A   Clear
8:51 AM 55.9 °F 21.9 °F 27% 29.73 in 10.0 mi East 8.1 mph - N/A   Clear
9:51 AM 61.0 °F 21.9 °F 22% 29.72 in 10.0 mi Calm Calm - N/A   Clear
10:51 AM 66.9 °F 28.0 °F 23% 29.70 in 10.0 mi SW 16.1 mph 26.5 mph N/A   Clear
11:51 AM 66.0 °F 27.0 °F 23% 29.70 in 10.0 mi SW 24.2 mph 29.9 mph N/A   Clear
12:51 PM 64.9 °F 25.0 °F 22% 29.66 in 10.0 mi SSW 23.0 mph 34.5 mph N/A   Clear
1:51 PM 64.9 °F 28.0 °F 25% 29.62 in 10.0 mi SW 23.0 mph 27.6 mph N/A   Clear
2:51 PM 66.0 °F 28.9 °F 25% 29.61 in 10.0 mi SW 23.0 mph 32.2 mph N/A   Partly Cloudy
3:51 PM 64.0 °F 27.0 °F 25% 29.60 in 10.0 mi SSW 20.7 mph 35.7 mph N/A   Clear
4:51 PM 64.0 °F 26.1 °F 24% 29.60 in 10.0 mi SSW 19.6 mph 29.9 mph N/A   Mostly Cloudy
5:51 PM 62.1 °F 26.1 °F 25% 29.58 in 10.0 mi SSW 24.2 mph - N/A   Partly Cloudy
6:51 PM 62.1 °F 26.1 °F 25% 29.58 in 10.0 mi SSW 25.3 mph 34.5 mph N/A   Mostly Cloudy
7:51 PM 61.0 °F 27.0 °F 27% 29.56 in 10.0 mi SSW 26.5 mph 33.4 mph N/A   Clear
8:51 PM 60.1 °F 27.0 °F 28% 29.60 in 10.0 mi SW 24.2 mph 34.5 mph N/A   Partly Cloudy
9:51 PM 55.9 °F 35.1 °F 45% 29.60 in 10.0 mi WSW 23.0 mph 28.8 mph N/A   Clear
10:51 PM 54.0 °F 34.0 °F 47% 29.59 in 10.0 mi SW 21.9 mph - N/A   Clear
11:51 PM 53.1 °F 34.0 °F 48% 29.60 in 10.0 mi SSW 11.5 mph - N/A   Clear